Miscellaneous Local Product
Issued by NWS Hastings, NE

Home | Current Version | Previous Version | Graphics & Text | Print | Product List | Glossary On
Versions: 1 2 3 4 5 6 7 8 9 10 11 12 13 14 15 16 17 18 19 20 21 22 23 24 25 26 27 28 29 30 31 32 33 34 35 36 37 38 39 40 41 42 43 44 45 46 47 48 49 50
000
AXUS43 KGID 240102
MISGRI

GID CWA HOURLY WEATHER ROUNDUP
NATIONAL WEATHER SERVICE HASTINGS NE
800 PM CDT SAT MAY 23 2015

NOTE: "FAIR" INDICATES FEW OR NO CLOUDS BELOW 12,000 FEET WITH NO
SIGNIFICANT WEATHER AND/OR OBSTRUCTIONS TO VISIBILITY.

...SOUTH CENTRAL NEBRASKA...

CITY           SKY/WX    TMP DP  RH WIND       PRES   REMARKS
GRAND ISLAND   CLOUDY    59  56  89 E14       30.00F
HASTINGS       CLOUDY    59  56  89 E10       29.98R
KEARNEY        CLOUDY    59  55  88 E15       29.98S
ORD            CLOUDY    58  54  86 E9        29.99F
YORK           CLOUDY    59  59 100 E15       29.99F
AURORA         CLOUDY    60  59  96 E13       29.99S
LEXINGTON      CLOUDY    59  56  92 E12       29.97S
HOLDREGE       CLOUDY    59  56  89 E16       29.96F
HEBRON         CLOUDY    61  57  88 E14       29.98S

...NEBRASKA PANHANDLE...

CITY           SKY/WX    TMP DP  RH WIND       PRES   REMARKS
CHADRON        CLOUDY    57  52  83 E8        29.96S
ALLIANCE       CLOUDY    57  54  89 E8G21     29.93R
SCOTTSBLUFF    CLOUDY    55  54  96 SE9       29.93S
SIDNEY         TSTM      51  49  92 W14       29.95R FOG

...WESTERN AND NORTH CENTRAL NEBRASKA...

CITY           SKY/WX    TMP DP  RH WIND       PRES   REMARKS
VALENTINE      CLOUDY    55  54  96 E9        30.02F
AINSWORTH      CLOUDY    56  55  97 E8        30.03S
ONEILL         CLOUDY    58  56  90 E6        30.04F
BROKEN BOW     LGT RAIN  57  55  93 E12       29.99S
IMPERIAL       CLOUDY    61  53  75 E15G22    29.91R
NORTH PLATTE   LGT RAIN  56  54  93 E16G23    29.97S
MCCOOK         CLOUDY    60  55  83 SE14      29.94R

...EASTERN NEBRASKA...

CITY           SKY/WX    TMP DP  RH WIND       PRES   REMARKS
NORFOLK        LGT RAIN  60  57  89 E5        30.04F
SO SIOUX CITY  CLOUDY    64  54  69 SE8       30.06F
TEKAMAH        CLOUDY    65  57  75 SE7       30.05F
COLUMBUS       CLOUDY    59  54  82 E12       30.04F
ALBION         CLOUDY    59  54  83 E9        30.01F
OMAHA EPPLEY   LGT RAIN  65  59  81 SE9       30.03F
OFFUTT AFB     CLOUDY    63  61  94 E7        30.03S
MILLARD        RAIN      63  60  89 E5        30.03F
LINCOLN        CLOUDY    62  60  93 E8        30.03R
NEBRASKA CITY  DRIZZLE   61  61  99 SE8       30.04F
BEATRICE       CLOUDY    61  59  93 E12       30.00S
FALLS CITY     LGT RAIN  62  60  93 SE10      30.05S FOG

...NORTHERN KANSAS...

CITY           SKY/WX    TMP DP  RH WIND       PRES   REMARKS
GOODLAND       CLOUDY    61  56  83 SE8       29.89R
HILL CITY      CLOUDY    59  56  89 E12       29.91F FOG
NORTON         LGT RAIN  57  54  88 E12       29.93R
PHILLIPSBURG   CLOUDY    63  61  94 E10G20    29.94S
SMITH CENTER   CLOUDY    59  55  88 E18       29.94S
HAYS           CLOUDY    61  52  72 E13       29.90F
RUSSELL        CLOUDY    60  58  92 E9        29.89F
CONCORDIA      CLOUDY    60  58  92 E10       29.95R
SALINA         CLOUDY    62  58  86 NW9       29.92R
TOPEKA         HVY RAIN  62  62 100 NE9       30.05F FOG



USA.gov is the U.S. government's official web portal to all federal, state and local government web resources and services.